Regional Weather Roundup
Issued by NWS Northern Indiana

Home | Current Version | Previous Version | Graphics & Text | Print | Product List | Glossary On
Versions: 1 2 3 4 5 6 7 8 9 10 11 12 13 14 15 16 17 18 19 20 21 22 23 24 25 26 27 28 29 30 31 32 33 34 35 36 37 38 39 40 41 42 43 44 45 46 47 48 49 50
000
ASUS43 KIWX 291310
RWRIWX

KIWX WEATHER ROUNDUP
NATIONAL WEATHER SERVICE NORTHERN INDIANA
900 AM EDT WED JUL 29 2015

NOTE: "FAIR" INDICATES FEW OR NO CLOUDS BELOW 12,000 FEET WITH NO
SIGNIFICANT WEATHER AND/OR OBSTRUCTIONS TO VISIBILITY.

* THESE STATIONS ARE NOT UNDER NWS QUALITY CONTROL. THEY ALSO MAY NOT
  REPORT WEATHER SUCH AS PRECIPITATION OR FOG.

INZ001>027-291400-
NORTHERN INDIANA

CITY           SKY/WX    TMP DP  RH WIND       PRES   REMARKS
GARY*          CLOUDY    77  75  94 VRB5      29.96R
VALPARAISO     CLOUDY    78  73  84 W9        29.97R
MICHIGAN CITY* CLOUDY    77  73  88 W3        29.96S
LAPORTE*       CLOUDY    78  78 100 W3        29.97R
KNOX*          CLOUDY    77  73  88 W5        29.96R
SOUTH BEND     CLOUDY    78  73  84 SW5       29.96S
ELKHART*       MOSUNNY   77  73  88 W3        29.97R
GOSHEN         PTSUNNY   79  73  82 SW5       29.96S
MONTICELLO*    CLOUDY    75  74  97 CALM      29.96F
LOGANSPORT*    CLOUDY    75  70  83 CALM      29.97F
ROCHESTER*     PTSUNNY   81  77  89 W3        29.97S
WARSAW*        PTSUNNY   79  73  83 W3        29.97S
ANGOLA*        PTSUNNY   79  72  78 SW3       29.98R
FORT WAYNE     PTSUNNY   78  73  84 SW3       29.98R
HUNTINGTON*    PTSUNNY   78  74  90 CALM      29.97S
PERU/GRISSOM   PTSUNNY   77  74  91 W6        29.97R
MARION*        PTSUNNY   77  74  90 W7        29.99R

$$
INZ028>050-291400-
CENTRAL INDIANA

CITY           SKY/WX    TMP DP  RH WIND       PRES   REMARKS
LAFAYETTE      CLOUDY    75  71  87 CALM      29.97R
KOKOMO*        PTSUNNY   77  72  83 W8        29.99R
MUNCIE*        PTSUNNY   80  73  79 SW6       29.99R
INDIANAPOLIS   PTSUNNY   81  72  74 W5        29.98R

$$
MIZ043>046-050>051-056>058-064>065-071>073-077>080-291400-
SOUTHWEST LOWER MICHIGAN

CITY           SKY/WX    TMP DP  RH WIND       PRES   REMARKS
BATTLE CREEK   PTSUNNY   76  68  76 SW7       29.96S
BENTON HARBOR  CLOUDY    77  72  84 W7        29.94S
COLDWATER*     PTSUNNY   77  69  76 SW5       29.98R
HILLSDALE*     SUNNY     78  72  81 SW6       29.99S
HOLLAND        CLOUDY    79  73  82 W8        29.94S
GRAND RAPIDS   CLOUDY    76  69  79 SW7       29.94S
KALAMAZOO      PTSUNNY   78  69  73 SW6       29.96R
STURGIS*       PTSUNNY   75  72  88 S6        29.96S
THREE RIVERS*  FAIR      77  70  80 SW3       29.96S

$$
OHZ001>008-015>018-024>025-291400-
NORTHWEST OHIO

CITY           SKY/WX    TMP DP  RH WIND       PRES   REMARKS
WAUSEON*       FAIR      77  72  83 CALM      29.98R
DEFIANCE       MOSUNNY   79  70  74 S5        29.98R
FINDLAY        MOSUNNY   78  71  79 S6        29.98R
TOLEDO EXPRESS SUNNY     77  68  73 SW6       29.97S
TOLEDO METCALF SUNNY     76  68  76 S6        29.98R
LIMA           MOSUNNY   76  71  85 S3        29.99S

$$
AND FOR LAKE MICHIGAN COASTAL AND OPEN LAKE BUOY OBSERVATIONS

STATION/POSITION TEMP    WIND        PRES    VSBY  WAVE
                 AIR SEA DIR/SP/G                  HT/PER
                 (F)     (DEG/KT/KT) (MB)    (MI)  (FT/S)
CALUMET HARBOR    75     220/  4/  6   N/A
MICHIGAN CITY     74     200/  4/  6   N/A
BURNS HARBOR      75     230/  8/  8 1014.6R
SAINT JOSEPH      75     180/  8/  9 1014.6F
4 MI NW BRIDGMAN  75 74  280/  8/  8   N/A           1/ 3
MICHIGAN CITY     75 74  260/  8/ 10   N/A           1/ 2

$$
&&


USA.gov is the U.S. government's official web portal to all federal, state and local government web resources and services.